2017-008AV

Last updated on Thu Mar 09 2017 00:15:03 GMT+0000 (Coordinated Universal Time)

1 41991U 17008AV 17067.83863464 .00002422 00000-0 10984-3 0 9998 2 41991 97.5089 129.4307 0008063 175.6931 184.4306 15.21780246 2597
UTC large
Height (km)
Speed (km/s)
/
Latitude / Longitude
Inclination (degrees)
Orbital Period (minutes)
Azimuth
Elevation
Range (km)
Doppler Factor

Next 0 passes for location: London (51.5072 / 0.1276)

Sorry there are no passes over London.
2017-008AV